Location: ?????????
(38.5999°N, 22.7695°E)
Time: 10:01:55
(UTC+00:00)

Cosmos 2278 - Pass Details

Date: 23 May 2024
Orbit: 837 x 853 km, 71.1° (Epoch: 18 June)

Event Time Altitude Azimuth Distance (km) Brightness Sun altitude
Rises 00:37:15 0° 334° (NNW) 3,428 7.3 -23.2°
Reaches altitude 10° 00:39:44 10° 331° (NNW) 2,488 6.5 -22.9°
Maximum altitude 00:45:23 64° 251° (WSW) 940 3.7 -22.3°
Enters shadow 00:46:58 45° 192° (SSW) 1,141 3.9 -22.1°
